Location: Curry Village
(37.7369°N, 119.5727°W)
Time: 12:25:16
(UTC+00:00)

Cosmos 2237 Rocket - Pass Details

Date: 05 August 2024
Orbit: 835 x 848 km, 71.0° (Epoch: 16 September)

Event Time Altitude Azimuth Distance (km) Brightness Sun altitude
Exits shadow 12:14:12 12° 225° (SW) 2,340 3.9 -10.0°
Maximum altitude 12:19:17 46° 297° (WNW) 1,119 2.6 -9.1°
Drops below altitude 10° 12:24:41 10° 10° (N) 2,459 5.2 -8.2°
Sets 12:27:15 0° 17° (NNE) 3,396 6.1 -7.7°
